| time (UTC) | temp F | wind direction | speed MPH | gust MPH | rain 1hr in | rain 24hr in | rain mn in | humidity % | barometer mb |
| 20260505234824 | 83 | 188 | 2.0 | 2.0 | 0.00 | 0.00 | 0.00 | 75 | 1009.0 |
| 20260505234322 | 83 | 148 | 2.0 | 6.0 | 0.00 | 0.00 | 0.00 | 75 | 1009.0 |
| 20260505233819 | 83 | 206 | 0.0 | 0.0 | 0.00 | 0.00 | 0.00 | 75 | 1008.8 |
| 20260505233317 | 84 | 227 | 3.0 | 3.0 | 0.00 | 0.00 | 0.00 | 74 | 1008.8 |
| 20260505232814 | 84 | 154 | 2.0 | 3.0 | 0.00 | 0.00 | 0.00 | 74 | 1008.7 |
| 20260505232311 | 84 | 192 | 4.0 | 5.0 | 0.00 | 0.00 | 0.00 | 75 | 1008.9 |
| 20260505231808 | 84 | 197 | 4.0 | 6.0 | 0.00 | 0.00 | 0.00 | 73 | 1008.8 |
| 20260505231306 | 84 | 201 | 5.0 | 8.0 | 0.00 | 0.00 | 0.00 | 73 | 1008.8 |
| 20260505230804 | 84 | 174 | 2.0 | 2.0 | 0.00 | 0.00 | 0.00 | 72 | 1009.0 |
| 20260505230301 | 84 | 133 | 6.0 | 7.0 | 0.00 | 0.00 | 0.00 | 72 | 1008.9 |
| 20260505225757 | 84 | 165 | 3.0 | 5.0 | 0.00 | 0.00 | 0.00 | 73 | 1008.8 |
| 20260505225254 | 84 | 214 | 2.0 | 5.0 | 0.00 | 0.00 | 0.00 | 72 | 1008.7 |
| 20260505224749 | 84 | 215 | 5.0 | 6.0 | 0.00 | 0.00 | 0.00 | 72 | 1008.8 |
| 20260505224247 | 84 | 179 | 5.0 | 7.0 | 0.00 | 0.00 | 0.00 | 72 | 1008.7 |
| 20260505223745 | 84 | 196 | 3.0 | 3.0 | 0.00 | 0.00 | 0.00 | 72 | 1008.7 |
| 20260505223241 | 85 | 208 | 4.0 | 5.0 | 0.00 | 0.00 | 0.00 | 71 | 1008.6 |
| 20260505222737 | 85 | 208 | 3.0 | 5.0 | 0.00 | 0.00 | 0.00 | 72 | 1008.6 |
| 20260505222233 | 85 | 161 | 2.0 | 3.0 | 0.00 | 0.00 | 0.00 | 72 | 1008.6 |
| 20260505221731 | 85 | 185 | 5.0 | 7.0 | 0.00 | 0.00 | 0.00 | 71 | 1008.7 |
| 20260505221227 | 84 | 202 | 2.0 | 2.0 | 0.00 | 0.00 | 0.00 | 72 | 1008.7 |
| 20260505220724 | 85 | 155 | 4.0 | 5.0 | 0.00 | 0.00 | 0.00 | 72 | 1008.7 |
| 20260505220222 | 86 | 145 | 5.0 | 7.0 | 0.00 | 0.00 | 0.00 | 71 | 1008.9 |
| 20260505215720 | 85 | 206 | 1.0 | 2.0 | 0.00 | 0.00 | 0.00 | 71 | 1008.7 |
| 20260505215217 | 86 | 198 | 8.0 | 11.0 | 0.00 | 0.00 | 0.00 | 70 | 1008.8 |
| 20260505214715 | 86 | 173 | 3.0 | 5.0 | 0.00 | 0.00 | 0.00 | 70 | 1008.7 |
| 20260505214212 | 86 | 164 | 6.0 | 7.0 | 0.00 | 0.00 | 0.00 | 70 | 1009.0 |
| 20260505213709 | 86 | 145 | 3.0 | 5.0 | 0.00 | 0.00 | 0.00 | 70 | 1009.0 |
| 20260505213206 | 86 | 183 | 4.0 | 6.0 | 0.00 | 0.00 | 0.00 | 70 | 1009.0 |
| 20260505212702 | 86 | 203 | 5.0 | 6.0 | 0.00 | 0.00 | 0.00 | 70 | 1009.0 |
| 20260505212200 | 86 | 134 | 7.0 | 9.0 | 0.00 | 0.00 | 0.00 | 71 | 1009.0 |
| 20260505211656 | 87 | 173 | 4.0 | 5.0 | 0.00 | 0.00 | 0.00 | 71 | 1009.5 |
| 20260505211154 | 87 | 174 | 5.0 | 6.0 | 0.00 | 0.00 | 0.00 | 68 | 1009.1 |
| 20260505210650 | 87 | 145 | 4.0 | 7.0 | 0.00 | 0.00 | 0.00 | 67 | 1009.0 |
| 20260505210147 | 87 | 195 | 3.0 | 3.0 | 0.00 | 0.00 | 0.00 | 69 | 1009.1 |
| 20260505205644 | 87 | 184 | 2.0 | 2.0 | 0.00 | 0.00 | 0.00 | 68 | 1009.2 |
| 20260505205143 | 86 | 217 | 0.0 | 1.0 | 0.00 | 0.00 | 0.00 | 69 | 1009.1 |
| 20260505204639 | 87 | 219 | 3.0 | 5.0 | 0.00 | 0.00 | 0.00 | 68 | 1009.5 |
| 20260505204137 | 87 | 201 | 5.0 | 7.0 | 0.00 | 0.00 | 0.00 | 67 | 1009.3 |
| 20260505203634 | 86 | 209 | 5.0 | 7.0 | 0.00 | 0.00 | 0.00 | 68 | 1009.5 |
| 20260505203131 | 86 | 204 | 1.0 | 1.0 | 0.00 | 0.00 | 0.00 | 68 | 1009.5 |
| 20260505202626 | 86 | 227 | 1.0 | 1.0 | 0.00 | 0.00 | 0.00 | 70 | 1010.1 |
| 20260505202122 | 86 | 157 | 6.0 | 7.0 | 0.00 | 0.00 | 0.00 | 69 | 1009.7 |
| 20260505201619 | 86 | 146 | 5.0 | 6.0 | 0.00 | 0.00 | 0.00 | 69 | 1010.0 |
| 20260505201117 | 86 | 224 | 4.0 | 5.0 | 0.00 | 0.00 | 0.00 | 69 | 1010.2 |
| 20260505200615 | 86 | 209 | 5.0 | 7.0 | 0.00 | 0.00 | 0.00 | 70 | 1010.0 |
| 20260505200111 | 86 | 194 | 3.0 | 5.0 | 0.00 | 0.00 | 0.00 | 68 | 1010.1 |
| 20260505195608 | 85 | 189 | 3.0 | 3.0 | 0.00 | 0.00 | 0.00 | 70 | 1010.2 |
| 20260505195106 | 85 | 188 | 1.0 | 3.0 | 0.00 | 0.00 | 0.00 | 70 | 1010.2 |
| 20260505194602 | 86 | 183 | 1.0 | 2.0 | 0.00 | 0.00 | 0.00 | 70 | 1010.3 |
| 20260505194058 | 86 | 188 | 3.0 | 3.0 | 0.00 | 0.00 | 0.00 | 70 | 1010.6 |
| 20260505193555 | 86 | 167 | 2.0 | 2.0 | 0.00 | 0.00 | 0.00 | 70 | 1010.5 |
| 20260505193052 | 86 | 162 | 3.0 | 3.0 | 0.00 | 0.00 | 0.00 | 70 | 1010.4 |
| 20260505192551 | 85 | 171 | 2.0 | 6.0 | 0.00 | 0.00 | 0.00 | 71 | 1010.6 |
| 20260505192048 | 84 | 168 | 4.0 | 6.0 | 0.00 | 0.00 | 0.00 | 74 | 1010.5 |
| 20260505191546 | 84 | 195 | 3.0 | 5.0 | 0.00 | 0.00 | 0.00 | 72 | 1010.8 |
| 20260505191044 | 84 | 135 | 5.0 | 6.0 | 0.00 | 0.00 | 0.00 | 71 | 1010.7 |
| 20260505190538 | 85 | 173 | 2.0 | 2.0 | 0.00 | 0.00 | 0.00 | 71 | 1010.8 |
| 20260505190034 | 86 | 212 | 2.0 | 2.0 | 0.00 | 0.00 | 0.00 | 72 | 1010.8 |
| 20260505185531 | 85 | 286 | 1.0 | 2.0 | 0.00 | 0.00 | 0.00 | 71 | 1010.9 |
| 20260505185027 | 85 | 178 | 3.0 | 5.0 | 0.00 | 0.00 | 0.00 | 74 | 1010.9 |
| 20260505184524 | 84 | 160 | 0.0 | 0.0 | 0.00 | 0.00 | 0.00 | 73 | 1010.9 |
| 20260505184021 | 84 | 156 | 1.0 | 1.0 | 0.00 | 0.00 | 0.00 | 74 | 1011.1 |
| 20260505183518 | 84 | 160 | 2.0 | 3.0 | 0.00 | 0.00 | 0.00 | 76 | 1011.2 |
| 20260505183015 | 83 | 189 | 1.0 | 1.0 | 0.00 | 0.00 | 0.00 | 74 | 1011.2 |
| 20260505182512 | 82 | 236 | 4.0 | 6.0 | 0.00 | 0.00 | 0.00 | 75 | 1011.2 |
| 20260505182008 | 83 | 240 | 2.0 | 3.0 | 0.00 | 0.00 | 0.00 | 74 | 1011.4 |
| 20260505181505 | 82 | 175 | 5.0 | 6.0 | 0.00 | 0.00 | 0.00 | 76 | 1011.4 |
| 20260505181003 | 81 | 175 | 6.0 | 8.0 | 0.00 | 0.00 | 0.00 | 76 | 1011.7 |
| 20260505180458 | 82 | 192 | 4.0 | 5.0 | 0.00 | 0.00 | 0.00 | 76 | 1011.4 |
| 20260505175955 | 82 | 162 | 3.0 | 5.0 | 0.00 | 0.00 | 0.00 | 78 | 1011.5 |
| 20260505175451 | 80 | 187 | 1.0 | 1.0 | 0.00 | 0.00 | 0.00 | 80 | 1011.6 |
| 20260505174948 | 79 | 196 | 3.0 | 3.0 | 0.00 | 0.00 | 0.00 | 81 | 1011.9 |
| 20260505174445 | 79 | 173 | 2.0 | 7.0 | 0.00 | 0.00 | 0.00 | 82 | 1012.0 |
| 20260505173941 | 78 | 188 | 2.0 | 2.0 | 0.00 | 0.00 | 0.00 | 82 | 1011.9 |
| 20260505173438 | 79 | 183 | 4.0 | 6.0 | 0.00 | 0.00 | 0.00 | 81 | 1011.9 |
| 20260505172935 | 78 | 184 | 1.0 | 2.0 | 0.00 | 0.00 | 0.00 | 83 | 1012.0 |
| 20260505172433 | 77 | 181 | 5.0 | 5.0 | 0.00 | 0.00 | 0.00 | 83 | 1011.8 |
| 20260505171932 | 78 | 201 | 1.0 | 1.0 | 0.00 | 0.00 | 0.00 | 83 | 1011.9 |
| 20260505171430 | 77 | 195 | 3.0 | 5.0 | 0.00 | 0.00 | 0.00 | 83 | 1012.0 |
| 20260505170926 | 77 | 212 | 1.0 | 2.0 | 0.00 | 0.00 | 0.00 | 83 | 1012.0 |
| 20260505170423 | 77 | 184 | 2.0 | 2.0 | 0.00 | 0.00 | 0.00 | 84 | 1012.3 |
| 20260505165918 | 77 | 184 | 1.0 | 2.0 | 0.00 | 0.00 | 0.00 | 84 | 1012.2 |
| 20260505165414 | 76 | 199 | 0.0 | 0.0 | 0.00 | 0.00 | 0.00 | 85 | 1012.1 |
| 20260505164909 | 76 | 201 | 1.0 | 1.0 | 0.00 | 0.00 | 0.00 | 85 | 1012.1 |
| 20260505164407 | 76 | 201 | 2.0 | 3.0 | 0.00 | 0.00 | 0.00 | 86 | 1012.2 |
| 20260505163905 | 76 | 143 | 3.0 | 3.0 | 0.00 | 0.00 | 0.00 | 86 | 1012.3 |
| 20260505163404 | 75 | 199 | 1.0 | 1.0 | 0.00 | 0.00 | 0.00 | 87 | 1012.1 |
| 20260505162902 | 75 | 198 | 1.0 | 2.0 | 0.00 | 0.00 | 0.00 | 87 | 1012.1 |
| 20260505162357 | 75 | 209 | 0.0 | 1.0 | 0.00 | 0.00 | 0.00 | 87 | 1012.1 |
| 20260505161855 | 75 | 193 | 4.0 | 7.0 | 0.00 | 0.00 | 0.00 | 87 | 1012.0 |
| 20260505161351 | 75 | 186 | 2.0 | 2.0 | 0.00 | 0.00 | 0.00 | 87 | 1012.1 |
| 20260505160849 | 75 | 195 | 2.0 | 3.0 | 0.00 | 0.00 | 0.00 | 88 | 1012.0 |
| 20260505160347 | 74 | 169 | 0.0 | 0.0 | 0.00 | 0.00 | 0.00 | 89 | 1012.2 |
| 20260505153326 | 73 | 191 | 0.0 | 1.0 | 0.00 | 0.00 | 0.00 | 91 | 1012.2 |
| 20260505152823 | 73 | 191 | 1.0 | 2.0 | 0.00 | 0.00 | 0.00 | 91 | 1012.2 |
| 20260505152320 | 73 | 198 | 1.0 | 1.0 | 0.00 | 0.00 | 0.00 | 91 | 1012.3 |
| 20260505151819 | 73 | 173 | 1.0 | 2.0 | 0.00 | 0.00 | 0.00 | 91 | 1012.1 |
| 20260505151317 | 73 | 198 | 1.0 | 2.0 | 0.00 | 0.00 | 0.00 | 91 | 1012.0 |
| 20260505150813 | 73 | 187 | 2.0 | 3.0 | 0.00 | 0.00 | 0.00 | 91 | 1012.1 |
| 20260505150310 | 72 | 207 | 2.0 | 2.0 | 0.00 | 0.00 | 0.00 | 91 | 1011.9 |
| 20260505140235 | 72 | 205 | 1.0 | 2.0 | 0.00 | 0.00 | 0.00 | 92 | 1011.8 |
| 20260505130159 | 71 | 184 | 1.0 | 2.0 | 0.00 | 0.00 | 0.00 | 92 | 1011.2 |
| 20260505124649 | 71 | 199 | 0.0 | 0.0 | 0.00 | 0.00 | 0.00 | 92 | 1011.0 |
| 20260505124145 | 71 | 183 | 1.0 | 2.0 | 0.00 | 0.00 | 0.00 | 92 | 1011.0 |
| 20260505123641 | 71 | 212 | 1.0 | 1.0 | 0.00 | 0.00 | 0.00 | 92 | 1011.0 |
| 20260505123139 | 71 | 164 | 3.0 | 5.0 | 0.00 | 0.00 | 0.00 | 92 | 1010.8 |
| 20260505122635 | 71 | 144 | 1.0 | 2.0 | 0.00 | 0.00 | 0.00 | 92 | 1010.8 |
| 20260505122132 | 71 | 278 | 2.0 | 3.0 | 0.00 | 0.00 | 0.00 | 92 | 1010.7 |
| 20260505121628 | 71 | 201 | 2.0 | 2.0 | 0.00 | 0.00 | 0.00 | 92 | 1010.5 |
| 20260505121125 | 71 | 196 | 3.0 | 5.0 | 0.00 | 0.00 | 0.00 | 92 | 1010.6 |
| 20260505120622 | 71 | 198 | 3.0 | 3.0 | 0.00 | 0.00 | 0.00 | 92 | 1010.4 |
| 20260505120118 | 71 | 193 | 2.0 | 3.0 | 0.00 | 0.00 | 0.00 | 92 | 1010.3 |
| 20260505115612 | 71 | 208 | 0.0 | 0.0 | 0.00 | 0.00 | 0.00 | 92 | 1010.4 |
| 20260505115109 | 71 | 225 | 2.0 | 2.0 | 0.00 | 0.00 | 0.00 | 92 | 1010.3 |
| 20260505114606 | 71 | 190 | 3.0 | 5.0 | 0.00 | 0.00 | 0.00 | 92 | 1010.5 |
| 20260505114103 | 71 | 199 | 2.0 | 2.0 | 0.00 | 0.00 | 0.00 | 92 | 1010.4 |
| 20260505113559 | 71 | 217 | 1.0 | 1.0 | 0.00 | 0.00 | 0.00 | 93 | 1010.2 |
| 20260505113056 | 71 | 238 | 0.0 | 1.0 | 0.00 | 0.00 | 0.00 | 93 | 1010.5 |
| 20260505112552 | 71 | 176 | 2.0 | 2.0 | 0.00 | 0.00 | 0.00 | 93 | 1010.4 |
| 20260505112050 | 71 | 151 | 3.0 | 3.0 | 0.00 | 0.00 | 0.00 | 93 | 1010.4 |
| 20260505111544 | 71 | 170 | 5.0 | 6.0 | 0.00 | 0.00 | 0.00 | 93 | 1010.4 |
| 20260505111040 | 71 | 211 | 1.0 | 2.0 | 0.00 | 0.00 | 0.00 | 93 | 1010.6 |
| 20260505110537 | 71 | 205 | 2.0 | 3.0 | 0.00 | 0.00 | 0.00 | 93 | 1010.2 |
| 20260505102009 | 71 | 187 | 3.0 | 3.0 | 0.00 | 0.00 | 0.00 | 91 | 1010.8 |
| 20260505101508 | 71 | 202 | 0.0 | 1.0 | 0.00 | 0.00 | 0.00 | 91 | 1010.4 |
| 20260505101004 | 71 | 198 | 3.0 | 5.0 | 0.00 | 0.00 | 0.00 | 91 | 1010.5 |
| 20260505100501 | 71 | 187 | 2.0 | 2.0 | 0.00 | 0.00 | 0.00 | 91 | 1010.8 |
| 20260505095957 | 71 | 204 | 0.0 | 1.0 | 0.00 | 0.00 | 0.00 | 91 | 1010.6 |
| 20260505095454 | 71 | 198 | 2.0 | 2.0 | 0.00 | 0.00 | 0.00 | 91 | 1010.6 |
| 20260505094950 | 71 | 200 | 0.0 | 0.0 | 0.00 | 0.00 | 0.00 | 91 | 1010.7 |
| 20260505094447 | 71 | 211 | 2.0 | 2.0 | 0.00 | 0.00 | 0.00 | 91 | 1010.7 |
| 20260505093943 | 71 | 183 | 0.0 | 0.0 | 0.00 | 0.00 | 0.00 | 91 | 1010.9 |
| 20260505093440 | 71 | 181 | 3.0 | 3.0 | 0.00 | 0.00 | 0.00 | 91 | 1010.5 |
| 20260505092937 | 71 | 180 | 2.0 | 2.0 | 0.00 | 0.00 | 0.00 | 91 | 1010.8 |
| 20260505092435 | 71 | 207 | 4.0 | 5.0 | 0.00 | 0.00 | 0.00 | 91 | 1010.8 |
| 20260505091932 | 71 | 210 | 2.0 | 2.0 | 0.00 | 0.00 | 0.00 | 91 | 1010.9 |
| 20260505091430 | 71 | 178 | 1.0 | 1.0 | 0.00 | 0.00 | 0.00 | 91 | 1011.0 |
| 20260505090927 | 71 | 134 | 3.0 | 5.0 | 0.00 | 0.00 | 0.00 | 91 | 1010.8 |
| 20260505090425 | 71 | 208 | 1.0 | 2.0 | 0.00 | 0.00 | 0.00 | 91 | 1010.6 |
| 20260505085922 | 71 | 210 | 2.0 | 3.0 | 0.00 | 0.00 | 0.00 | 91 | 1011.0 |
| 20260505085420 | 71 | 203 | 4.0 | 5.0 | 0.00 | 0.00 | 0.00 | 91 | 1010.9 |
| 20260505084918 | 71 | 186 | 3.0 | 5.0 | 0.00 | 0.00 | 0.00 | 91 | 1010.9 |
| 20260505084416 | 71 | 208 | 2.0 | 2.0 | 0.00 | 0.00 | 0.00 | 91 | 1011.0 |
| 20260505083914 | 71 | 208 | 2.0 | 2.0 | 0.00 | 0.00 | 0.00 | 91 | 1011.2 |
| 20260505083411 | 71 | 174 | 2.0 | 2.0 | 0.00 | 0.00 | 0.00 | 91 | 1010.9 |
| 20260505082907 | 71 | 199 | 0.0 | 1.0 | 0.00 | 0.00 | 0.00 | 91 | 1010.9 |
| 20260505082403 | 71 | 195 | 5.0 | 9.0 | 0.00 | 0.00 | 0.00 | 91 | 1011.1 |
| 20260505081900 | 71 | 199 | 3.0 | 6.0 | 0.00 | 0.00 | 0.00 | 91 | 1011.0 |
| 20260505081357 | 71 | 206 | 4.0 | 6.0 | 0.00 | 0.00 | 0.00 | 91 | 1011.3 |
| 20260505080853 | 71 | 115 | 4.0 | 5.0 | 0.00 | 0.00 | 0.00 | 91 | 1011.3 |
| 20260505080349 | 71 | 207 | 3.0 | 3.0 | 0.00 | 0.00 | 0.00 | 90 | 1011.3 |
| 20260505075845 | 71 | 171 | 2.0 | 2.0 | 0.00 | 0.00 | 0.00 | 90 | 1011.3 |
| 20260505075342 | 71 | 205 | 1.0 | 3.0 | 0.00 | 0.00 | 0.00 | 90 | 1011.3 |
| 20260505074839 | 71 | 191 | 1.0 | 2.0 | 0.00 | 0.00 | 0.00 | 90 | 1011.5 |
| 20260505074337 | 71 | 241 | 3.0 | 5.0 | 0.00 | 0.00 | 0.00 | 90 | 1011.7 |
| 20260505073834 | 71 | 217 | 1.0 | 1.0 | 0.00 | 0.00 | 0.00 | 90 | 1011.5 |
| 20260505073332 | 71 | 206 | 2.0 | 2.0 | 0.00 | 0.00 | 0.00 | 89 | 1011.6 |
| 20260505072828 | 71 | 160 | 3.0 | 6.0 | 0.00 | 0.00 | 0.00 | 90 | 1011.6 |
| 20260505072324 | 71 | 198 | 3.0 | 5.0 | 0.00 | 0.00 | 0.00 | 89 | 1011.8 |
| 20260505071820 | 71 | 233 | 1.0 | 2.0 | 0.00 | 0.00 | 0.00 | 89 | 1011.5 |
| 20260505071317 | 71 | 212 | 2.0 | 2.0 | 0.00 | 0.00 | 0.00 | 89 | 1011.9 |
| 20260505070816 | 71 | 206 | 1.0 | 1.0 | 0.00 | 0.00 | 0.00 | 89 | 1011.8 |
| 20260505070312 | 71 | 212 | 2.0 | 3.0 | 0.00 | 0.00 | 0.00 | 89 | 1012.0 |
| 20260505065807 | 71 | 142 | 6.0 | 9.0 | 0.00 | 0.00 | 0.00 | 89 | 1012.0 |
| 20260505065304 | 72 | 206 | 1.0 | 2.0 | 0.00 | 0.00 | 0.00 | 89 | 1011.9 |
| 20260505064801 | 72 | 160 | 5.0 | 8.0 | 0.00 | 0.00 | 0.00 | 89 | 1012.1 |
| 20260505064258 | 72 | 201 | 2.0 | 2.0 | 0.00 | 0.00 | 0.00 | 89 | 1012.0 |
| 20260505063756 | 72 | 153 | 3.0 | 5.0 | 0.00 | 0.00 | 0.00 | 89 | 1012.1 |
| 20260505063252 | 72 | 211 | 1.0 | 3.0 | 0.00 | 0.00 | 0.00 | 89 | 1012.2 |
| 20260505062749 | 72 | 142 | 3.0 | 6.0 | 0.00 | 0.00 | 0.00 | 89 | 1012.1 |
| 20260505062246 | 72 | 156 | 4.0 | 7.0 | 0.00 | 0.00 | 0.00 | 88 | 1012.2 |
| 20260505061743 | 72 | 234 | 5.0 | 7.0 | 0.00 | 0.00 | 0.00 | 88 | 1012.2 |
| 20260505061241 | 72 | 166 | 4.0 | 6.0 | 0.00 | 0.00 | 0.00 | 88 | 1012.4 |
| 20260505060738 | 72 | 211 | 3.0 | 5.0 | 0.00 | 0.00 | 0.00 | 88 | 1012.6 |
| 20260505060235 | 72 | 166 | 5.0 | 8.0 | 0.00 | 0.00 | 0.00 | 88 | 1012.4 |
| 20260505055730 | 72 | 219 | 0.0 | 0.0 | 0.00 | 0.00 | 0.00 | 88 | 1012.6 |
| 20260505055227 | 72 | 206 | 5.0 | 6.0 | 0.00 | 0.00 | 0.00 | 88 | 1012.3 |
| 20260505054724 | 72 | 215 | 2.0 | 2.0 | 0.00 | 0.00 | 0.00 | 88 | 1012.6 |
| 20260505054222 | 72 | 209 | 3.0 | 5.0 | 0.00 | 0.00 | 0.00 | 88 | 1012.7 |
| 20260505053720 | 72 | 193 | 2.0 | 3.0 | 0.00 | 0.00 | 0.00 | 88 | 1012.4 |
| 20260505053216 | 72 | 225 | 0.0 | 0.0 | 0.00 | 0.00 | 0.00 | 88 | 1012.6 |
| 20260505052714 | 72 | 189 | 3.0 | 3.0 | 0.00 | 0.00 | 0.00 | 88 | 1012.4 |
| 20260505052210 | 72 | 156 | 2.0 | 3.0 | 0.00 | 0.00 | 0.00 | 88 | 1012.4 |
| 20260505051707 | 72 | 197 | 1.0 | 1.0 | 0.00 | 0.00 | 0.00 | 88 | 1012.3 |
| 20260505051206 | 72 | 195 | 3.0 | 3.0 | 0.00 | 0.00 | 0.00 | 88 | 1012.4 |
| 20260505050703 | 72 | 222 | 0.0 | 0.0 | 0.00 | 0.00 | 0.00 | 88 | 1012.7 |
| 20260505050201 | 72 | 215 | 2.0 | 2.0 | 0.00 | 0.00 | 0.00 | 88 | 1012.4 |
| 20260505041631 | 73 | 210 | 1.0 | 2.0 | 0.00 | 0.00 | 0.00 | 87 | 1012.4 |
| 20260505041128 | 73 | 190 | 5.0 | 8.0 | 0.00 | 0.00 | 0.00 | 86 | 1012.4 |
| 20260505040625 | 73 | 175 | 5.0 | 7.0 | 0.00 | 0.00 | 0.00 | 86 | 1012.2 |
| 20260505040122 | 73 | 180 | 6.0 | 9.0 | 0.00 | 0.00 | 0.00 | 86 | 1012.6 |
| 20260505035618 | 73 | 208 | 5.0 | 8.0 | 0.00 | 0.00 | 0.00 | 86 | 1012.2 |
| 20260505035115 | 73 | 215 | 2.0 | 2.0 | 0.00 | 0.00 | 0.00 | 86 | 1012.3 |
| 20260505034612 | 73 | 178 | 3.0 | 3.0 | 0.00 | 0.00 | 0.00 | 85 | 1012.3 |
| 20260505034108 | 73 | 133 | 3.0 | 5.0 | 0.00 | 0.00 | 0.00 | 84 | 1012.4 |
| 20260505033605 | 74 | 201 | 2.0 | 2.0 | 0.00 | 0.00 | 0.00 | 83 | 1012.2 |
| 20260505033104 | 74 | 210 | 3.0 | 3.0 | 0.00 | 0.00 | 0.00 | 83 | 1012.3 |
| 20260505032601 | 74 | 219 | 1.0 | 1.0 | 0.00 | 0.00 | 0.00 | 82 | 1012.4 |
| 20260505032057 | 74 | 204 | 0.0 | 1.0 | 0.00 | 0.00 | 0.00 | 82 | 1012.4 |
| 20260505031555 | 74 | 215 | 1.0 | 1.0 | 0.00 | 0.00 | 0.00 | 82 | 1012.3 |
| 20260505031051 | 74 | 197 | 2.0 | 2.0 | 0.00 | 0.00 | 0.00 | 82 | 1012.3 |
| 20260505030548 | 74 | 206 | 1.0 | 1.0 | 0.00 | 0.00 | 0.00 | 82 | 1012.2 |
| 20260505030044 | 74 | 215 | 1.0 | 2.0 | 0.00 | 0.00 | 0.00 | 81 | 1012.3 |
| 20260505025540 | 74 | 216 | 3.0 | 5.0 | 0.00 | 0.00 | 0.00 | 81 | 1012.0 |
| 20260505025039 | 74 | 222 | 3.0 | 6.0 | 0.00 | 0.00 | 0.00 | 81 | 1012.2 |
| 20260505024536 | 75 | 218 | 1.0 | 1.0 | 0.00 | 0.00 | 0.00 | 80 | 1012.2 |
| 20260505024032 | 75 | 159 | 4.0 | 6.0 | 0.00 | 0.00 | 0.00 | 80 | 1012.1 |
| 20260505023529 | 75 | 134 | 0.0 | 1.0 | 0.00 | 0.00 | 0.00 | 80 | 1012.2 |
| 20260505023027 | 75 | 174 | 2.0 | 2.0 | 0.00 | 0.00 | 0.00 | 79 | 1012.2 |
| 20260505022525 | 75 | 196 | 1.0 | 2.0 | 0.00 | 0.00 | 0.00 | 79 | 1012.2 |
| 20260505022022 | 75 | 206 | 2.0 | 2.0 | 0.00 | 0.00 | 0.00 | 78 | 1012.1 |
| 20260505021518 | 75 | 203 | 2.0 | 2.0 | 0.00 | 0.00 | 0.00 | 78 | 1012.1 |
| 20260505021014 | 75 | 216 | 1.0 | 1.0 | 0.00 | 0.00 | 0.00 | 78 | 1012.3 |
| 20260505020509 | 75 | 205 | 1.0 | 2.0 | 0.00 | 0.00 | 0.00 | 77 | 1012.0 |
| 20260505020006 | 75 | 181 | 0.0 | 0.0 | 0.00 | 0.00 | 0.00 | 77 | 1011.9 |
| 20260505015503 | 75 | 209 | 2.0 | 2.0 | 0.00 | 0.00 | 0.00 | 77 | 1012.1 |
| 20260505015000 | 76 | 209 | 0.0 | 0.0 | 0.00 | 0.00 | 0.00 | 76 | 1012.0 |
| 20260505014457 | 76 | 209 | 2.0 | 2.0 | 0.00 | 0.00 | 0.00 | 75 | 1012.1 |
| 20260505013954 | 76 | 209 | 1.0 | 1.0 | 0.00 | 0.00 | 0.00 | 74 | 1012.1 |
| 20260505013451 | 77 | 206 | 1.0 | 2.0 | 0.00 | 0.00 | 0.00 | 74 | 1011.8 |
| 20260505012949 | 77 | 214 | 0.0 | 0.0 | 0.00 | 0.00 | 0.00 | 74 | 1012.0 |
| 20260505012447 | 77 | 181 | 2.0 | 3.0 | 0.00 | 0.00 | 0.00 | 73 | 1011.8 |
| 20260505011943 | 77 | 192 | 3.0 | 3.0 | 0.00 | 0.00 | 0.00 | 72 | 1011.8 |
| 20260505011439 | 77 | 187 | 0.0 | 1.0 | 0.00 | 0.00 | 0.00 | 71 | 1011.8 |
| 20260505010936 | 77 | 199 | 1.0 | 1.0 | 0.00 | 0.00 | 0.00 | 71 | 1011.9 |
| 20260505010432 | 78 | 137 | 3.0 | 5.0 | 0.00 | 0.00 | 0.00 | 70 | 1011.7 |
| 20260505005928 | 78 | 168 | 2.0 | 2.0 | 0.00 | 0.00 | 0.00 | 70 | 1011.8 |
| 20260505005425 | 78 | 214 | 1.0 | 1.0 | 0.00 | 0.00 | 0.00 | 69 | 1011.7 |
| 20260505004923 | 78 | 196 | 3.0 | 5.0 | 0.00 | 0.00 | 0.00 | 68 | 1011.8 |
| 20260505004419 | 78 | 178 | 5.0 | 8.0 | 0.00 | 0.00 | 0.00 | 67 | 1011.9 |
| 20260505003916 | 79 | 216 | 2.0 | 2.0 | 0.00 | 0.00 | 0.00 | 67 | 1011.8 |
| 20260505003413 | 79 | 191 | 3.0 | 3.0 | 0.00 | 0.00 | 0.00 | 67 | 1011.8 |
| 20260505002909 | 79 | 205 | 2.0 | 3.0 | 0.00 | 0.00 | 0.00 | 66 | 1011.6 |
| 20260505002406 | 79 | 140 | 3.0 | 3.0 | 0.00 | 0.00 | 0.00 | 66 | 1011.7 |
| 20260505001904 | 79 | 204 | 0.0 | 1.0 | 0.00 | 0.00 | 0.00 | 66 | 1011.7 |
| 20260505001401 | 80 | 277 | 3.0 | 5.0 | 0.00 | 0.00 | 0.00 | 66 | 1011.5 |
| 20260505000858 | 79 | 199 | 1.0 | 2.0 | 0.00 | 0.00 | 0.00 | 66 | 1011.6 |
| 20260505000358 | 79 | 212 | 3.0 | 3.0 | 0.00 | 0.00 | 0.00 | 66 | 1011.7 |
| 20260504235852 | 79 | 205 | 2.0 | 3.0 | 0.00 | 0.00 | 0.00 | 66 | 1011.6 |
| 20260504235349 | 80 | 179 | 5.0 | 10.0 | 0.00 | 0.00 | 0.00 | 65 | 1011.8 |